STARLINK-32159, 60293

Orbit data source: Space-Track

STARLINK-32159, 60293 is a payload satellite owned by SpaceX/Seattle (US) in LEO that was launched on Sun, 28 Jul 2024 UTC via an FALCON 9 launch vehicle from the Air Force Eastern Test Range (AFETR). Payload-class satellites include a variety of spacecraft equipped with specific instruments for various scientific and technological missions. These include communications satellites like Starlink; space stations such as the ISS; scientific satellites like the Hubble; Earth observation satellites from companies like Planet Labs, Umbra, and HawkEye 360; GPS; miniature CubeSats for education and research; and military/defense satellites.

Loading next visibility...
Identifier
60293, 2024-132R
Orbit
LEO
Country
Flag of USUS
Related business
Manufacturer
SpaceX/Seattle
Mission
Operational Commercial Communications
Bus & Motor
STARLINK V2M, Unknown motor
Mass
730 kg wet, ~700 kg dry
Launch date (UTC)
2024-07-28 (2 years ago)
Launch vehicle
FALCON 9
Launch site
Air Force Eastern Test Range (AFETR)
Object type
Payload
Rocket body
Debris
Shape & HBR
Box + 2 Pan, 17.7 m
Radar Cross Section
33.884 m², Large (>1 m²)

Expand to show TLE details & history
Last TLE update: 21 hours ago

TLE from 21 hours ago
0 STARLINK-32159
1 60293U 24132R   26126.42207816 -.00000581  00000-0 -74966-5 0  9992
2 60293  53.1595 143.9712 0001131  84.9088 275.2041 15.30177043100407
Epoch: 2026-05-06T10:07Z
TLE epoch observation values (Epoch: 2026-05-06T10:07:47.553Z)
Latitude
-0.00006°
Longitude
127.74021°
Altitude
476.113 km
Speed
7.629 km/s
True Right ascension
09h 35m 53s
True Declination
0° 00' 00"
Sunlit
Object was in daylight at epoch
Visualization orbit readout
Latitude
Unknown
Longitude
Unknown
Altitude
Unknown
Speed
Unknown
Apparent Right ascension
Unknown
Apparent Declination
Unknown
Sunlit
N/A
Visualization observer readout
Local Sidereal Time
15:08:22
Azimuth
Unknown
Elevation
Unknown
Doppler factor
Unknown
Orbital elements
Apogee altitude
476.315 km
Perigee altitude
474.765 km
Semi-major axis
6,853.677 km
Eccentricity
0.00011
Inclination
53.1595°
RAAN
143.9712°
Arg. of periapsis
84.9088°
True anomaly
275.19119°
Mean anomaly
275.2041°
Eccentric anomaly
275.19765°
Mean motion
3.82523 °/min
Orbital period
94.11 mins
BSTAR
-0.0000074966
Loading maneuver chart data...
Computing Atmospheric mass density...
Loading historical data...
Loading historical data...
Loading historical data...
Loading historical data...
Loading historical data...
Loading historical data...
Loading historical data...

Documentation

Showing up to 5 results
|